Spokane Felts, WA

2:00 AM PDT on May 28, 2017 (GMT -0700)
Felts

Weather History for KSFF - October, 2013

Change the Weather History Date:

Sunday, October 20, 2013

  Actual Average Record
Temperature  
Mean Temperature 49 °F 46 °F  
Max Temperature 65 °F 57 °F 72 °F (2014)
Min Temperature 32 °F 36 °F 28 °F (1996)
Degree Days  
Heating Degree Days 16 19  
Month to date heating degree days 350 296  
Since 1 July heating degree days 484 507  
Cooling Degree Days 0 0  
Month to date cooling degree days 0 0  
Year to date cooling degree days 704 406  
Moisture  
Dew Point 37 °F    
Average Humidity 66    
Maximum Humidity 92    
Minimum Humidity 40    
Precipitation  
Precipitation 0.00 in 0.05 in 0.58 in (2016)
Month to date precipitation 0.12 0.78  
Year to date precipitation 11.80 12.36  
Sea Level Pressure  
Sea Level Pressure 30.16 in    
Wind  
Wind Speed 1 mph (NE)    
Max Wind Speed 7 mph    
Max Gust Speed 10 mph    
Visibility 7 miles    
Events Fog    
T = Trace of Precipitation, MM = Missing Value Source: NWS Daily Summary

Daily Weather History Graph

Daily Weather History Graph

Search for Another Location

Airport or City:

Trip Planner

Search our weather history database for the weather conditions in past years. The results will help you decide how hot, cold, wet, or windy it might be!

Date:

Astronomy

Oct. 20, 2013 Rise Set
Actual Time 7:15 AM PDT 5:51 PM PDT
Civil Twilight 6:44 AM PDT 6:22 PM PDT
Nautical Twilight 6:08 AM PDT 6:58 PM PDT
Astronomical Twilight 5:32 AM PDT 7:34 PM PDT
Moon 6:54 PM PDT (10/20) 9:06 AM PDT (10/20)
Length of Visible Light 11h 38m
Length of Day
10h 35m
Waning Gibbous, 97% of the Moon is Illuminated
Oct 20
Waning Gibbous
Oct 26
Last Quarter
Nov 3
New
Nov 9
First Quarter
Nov 17
Full

Hourly Weather History & Observations

Time (PDT) Temp. Windchill Dew Point Humidity Pressure Visibility Wind Dir Wind Speed Gust Speed Precip Events Conditions
12:53 AM 41.0 °F - 37.9 °F 89% 30.13 in 10.0 mi Calm Calm - N/A   Clear
1:53 AM 37.9 °F - 34.0 °F 86% 30.14 in 9.0 mi Calm Calm - N/A   Clear
2:53 AM 37.9 °F - 36.0 °F 93% 30.15 in 9.0 mi Calm Calm - N/A   Clear
3:53 AM 37.9 °F - 36.0 °F 93% 30.14 in 8.0 mi Calm Calm - N/A   Clear
4:35 AM 35.6 °F - 35.6 °F 100% 30.14 in 1.8 mi Calm Calm - N/A   Clear
4:51 AM 37.4 °F - 35.6 °F 93% 30.14 in 1.8 mi Calm Calm - N/A   Partly Cloudy
4:53 AM 37.0 °F - 35.1 °F 93% 30.15 in 2.0 mi Calm Calm - N/A   Partly Cloudy
5:01 AM 37.4 °F - 35.6 °F 93% 30.14 in 6.0 mi Calm Calm - N/A   Partly Cloudy
5:19 AM 35.6 °F - 33.8 °F 93% 30.14 in 2.0 mi Calm Calm - N/A   Clear
5:27 AM 37.4 °F - 35.6 °F 93% 30.15 in 1.0 mi Calm Calm - N/A   Clear
5:44 AM 33.8 °F - 33.8 °F 100% 30.15 in 0.5 mi Calm Calm - N/A Fog Fog
5:53 AM 35.1 °F - 34.0 °F 96% 30.18 in 0.8 mi Calm Calm - N/A   Clear
5:57 AM 35.6 °F - 33.8 °F 93% 30.16 in 7.0 mi Calm Calm - N/A Fog Patches of Fog
6:20 AM 35.6 °F - 33.8 °F 93% 30.16 in 7.0 mi Calm Calm - N/A Fog Patches of Fog
6:33 AM 33.8 °F - 33.8 °F 100% 30.16 in 0.2 mi Calm Calm - N/A Fog Fog
6:51 AM 35.6 °F - 33.8 °F 93% 30.16 in 8.0 mi Calm Calm - N/A Fog Patches of Fog
6:53 AM 35.1 °F - 34.0 °F 96% 30.19 in 8.0 mi Calm Calm - N/A Fog Patches of Fog
7:53 AM 35.1 °F - 34.0 °F 96% 30.20 in 8.0 mi Calm Calm - N/A Fog Patches of Fog
8:53 AM 37.9 °F - 36.0 °F 93% 30.21 in 8.0 mi Calm Calm - N/A Fog Patches of Fog
9:53 AM 42.1 °F - 37.0 °F 82% 30.21 in 8.0 mi Calm Calm - N/A   Clear
10:53 AM 48.9 °F - 37.9 °F 66% 30.19 in 10.0 mi ENE 3.5 mph - N/A   Clear
11:53 AM 54.0 °F - 37.9 °F 55% 30.17 in 10.0 mi Calm Calm - N/A   Clear
12:53 PM 57.0 °F - 39.0 °F 51% 30.16 in 10.0 mi Calm Calm - N/A   Clear
1:53 PM 61.0 °F - 39.0 °F 44% 30.14 in 10.0 mi Calm Calm - N/A   Clear
2:53 PM 63.0 °F - 39.0 °F 41% 30.12 in 10.0 mi Calm Calm - N/A   Clear
3:53 PM 64.9 °F - 39.0 °F 39% 30.12 in 10.0 mi SW 6.9 mph - N/A   Clear
4:53 PM 64.9 °F - 39.0 °F 39% 30.12 in 10.0 mi Calm Calm - N/A   Clear
5:53 PM 57.0 °F - 39.9 °F 53% 30.14 in 10.0 mi Calm Calm - N/A   Clear
6:53 PM 51.1 °F - 39.9 °F 66% 30.15 in 10.0 mi NE 3.5 mph - N/A   Clear
7:53 PM 52.0 °F - 39.9 °F 63% 30.16 in 10.0 mi NE 4.6 mph - N/A   Clear
8:53 PM 50.0 °F - 39.9 °F 68% 30.17 in 10.0 mi Calm Calm - N/A   Clear
9:53 PM 48.0 °F - 39.9 °F 74% 30.18 in 10.0 mi ENE 5.8 mph - N/A   Clear
10:53 PM 46.0 °F 44.8 °F 39.9 °F 79% 30.17 in 10.0 mi NE 3.5 mph - N/A   Clear
11:53 PM 45.0 °F - 39.9 °F 82% 30.17 in 10.0 mi Calm Calm - N/A   Clear